Weather in Marondera

Zimbabwe     18°11′14″S   31°33′14″E
В апреле 2022 года жителям России запретили посещать сайт meteo.paraplan.net по решению Генеральной прокуратуры. Аудитория сайта уменьшилась в 10 раз. Владельцы сайта не видят смысла в поддержке погодного сервера в таких условиях. Сайт будет закрыт в октябре.
temp.,
°C
wind,
m/s
gust,
m/s
humid.,
%
clouds,
%
prec.,
mm/h
press.,
hPa
HPBL,
m
29 september, thu
thu2923:00+12e26740 0.0 1021132
02:00+10ese26880 0.0 1021109
05:00+9ese26910 0.0 102196
08:00+17ese46390 0.0 1021780
11:00+25se23200 0.0 10182203
14:00+28ese23165 0.0 10143042
17:00+25ese341767 0.0 10131787
20:00+15e35350 0.0 101999
30 september, fri
fri3023:00+13ene311500 0.0 1019204
02:00+12ne38590 0.0 1018128
05:00+12ne33600 0.0 101837
08:00+21e23310 0.0 1018792
11:00+27ese23170 0.0 10152589
14:00+30se33130 0.0 10113371
17:00+27ese341726 0.0 10111920
20:00+17ene22330 0.0 101715
1 october, sat
sat123:00+15ne312480 0.0 1019223
02:00+14ne37580 0.0 1017104
05:00+14ne36540 0.0 101781
08:00+23ene34290 0.0 10171035
11:00+29e33170 0.0 10152782
14:00+31ese34144 0.0 10113420
17:00+28ese451763 0.0 10111734
20:00+18ene31036100 0.0 1018205
2 october, sun
sun223:00+18ne513449 0.0 1018447
02:00+16ne38455 0.0 1017130
05:00+14ne23500 0.0 101831
08:00+24e35250 0.0 1018950
11:00+29se45160 0.0 10162559
14:00+32ese34110 0.0 10113490
17:00+29e35141 0.0 10121584
20:00+18ene39300 0.0 1018170
3 october, mon
mon323:00+17ne412410 0.0 1018263
02:00+14ne24500 0.0 101750
05:00+13ene22510 0.0 101813
08:00+24ene25250 0.0 1017703
11:00+31ene3580 0.0 10142565
14:00+33ene4480 0.0 10103437
17:00+30e35100 0.0 10101045
20:00+18ene37230 0.0 101699